Eastern Lake Erie: Past 24 Hour Conditions

 

Lake St Clair - 45147

11:00 AM EDT 25 September 2016Buoy position: 42.43N 82.68W
Disclaimer

This table is a summary of hourly weather conditions for the past 24 hours.
Please note that these observations might not always be representative of weather conditions over their associated marine area.

Date / Time
(EDT)
Wind(knots) Wave height(m) Wave period(s) Pressure(kPa) Air tempC) Water tempC)
25 September 2016
11:00 SE 12 gust 16 0.3 2.0 102.2 18 20
10:00 ESE 10 gust 12 0.3 2.0 102.2 17 20
9:00 ESE 8 gust 10 0.4 2.0 102.3 17 20
8:00 E 12 gust 14 0.4 3.0 102.2 16 20
7:00 E 12 gust 14 0.4 3.0 102.2 16 21
6:00 E 12 gust 14 0.4 2.0 102.2 17 21
5:00 E 12 gust 14 0.3 2.0 102.2 16 21
4:00 ENE 8 gust 10 0.2 2.0 102.3 17 21
3:00 E 6 gust 8 0.3 2.0 102.3 17 21
2:00 ENE 8 gust 10 0.3 2.0 102.3 17 21
1:00 ENE 10 gust 12 0.3 2.0 102.3 17 21
0:00 ENE 12 gust 14 0.4 3.0 102.3 17 21
24 September 2016
23:00 ENE 14 gust 16 0.4 3.0 102.3 17 21
22:00 NE 12 gust 14 0.4 2.0 102.3 17 21
21:00 NE 14 gust 16 0.5 3.0 102.3 17 21
20:00 NNE 12 gust 16 0.3 2.0 102.3 18 21
19:00 N 12 gust 14 0.3 2.0 102.2 19 21
18:00 NNW 10 gust 12 0.2 2.0 102.2 19 21
17:00 NW 4 gust 8 0.2 2.0 102.3 18 21
16:00 NNW 4 gust 6 0.2 2.0 102.3 18 21
15:00 N 4 gust 8 0.2 2.0 102.4 18 21
14:00 E 6 gust 10 0.3 2.0 102.4 17 21
13:00 ENE 8 gust 12 0.3 2.0 102.5 17 21
12:00 ENE 10 gust 14 0.4 3.0 102.5 16 21
11:00 ENE 12 gust 14 0.4 3.0 102.5 15 21

Zoom-in to make a selection

Map of Great Lakes - Lake Erie and Lake Ontario marine weather areas N Huron - 45003 W Erie - 45005 S Huron - 45008 Lake Ontario - 45012 Port Stanley - 45132 Prince Edward Point - 45135 Georgian Bay - 45137 Grimsby - 45139 Port Colborne - 45142 South Georgian Bay - 45143 Lake St Clair - 45147 South Lake Huron - 45149 Lake Simcoe - 45151 Lake Nipissing - 45152 North Channel - 45154 Ajax - 45159 Sault Ste. Marie Airport Greater Sudbury Airport North Bay Airport Gore Bay-Manitoulin Airport Great Duck Island Brockville Grenadier Island Kingston Airport Collingwood Lagoon City Muskoka Airport Parry Sound Harbour Lake Simcoe Regional Airport Wiarton Airport Goderich Sarnia Chris Hadfield Airport Tobermory Harrow AAFC Port Weller St. Catharines Airport Southeast Shoal Vineland Station Welland-Pelham Windsor Airport Burlington Lift Bridge Cobourg Hamilton Munro Int'l Airport Oshawa Municipal Airport Point Petre Toronto City Centre Airport CFB Trenton Peterborough Municipal Airport Killarney Western Islands Cove Island Long Point Port Colborne Erieau Point Pelee
Legend:
buoy Buoy
land station Land Station

Great Lakes - Lake Erie and Lake Ontario Area

Another Region

What we are doing

Date modified: